Location: Minneapolis
(45.0000°N, 93.0000°W)
Time: 05:09:14
(UTC-05:00)

OTV 5 (USA 277) - Visible Passes

Search period start: 19 June 2018 00:00
Search period end: 29 June 2018 00:00
Orbit: 313 x 320 km, 54.5° (Epoch: 18 June)

Date Brightness Start Highest point End Pass type
(mag) Time Alt. Az. Time Alt. Az. Time Alt. Az.
19 Jun ? 01:08:06 10° NNW 01:09:17 12° N 01:10:30 10° NNE visible
19 Jun ? 02:41:49 10° NW 02:44:17 30° NNE 02:46:44 10° E visible
19 Jun ? 04:16:11 10° WNW 04:18:33 26° SW 04:20:53 10° SSE visible
19 Jun ? 22:11:32 10° W 22:13:53 27° NNW 22:16:16 10° NE visible
19 Jun ? 23:47:47 10° NNW 23:48:54 12° N 23:50:02 10° NNE visible
20 Jun ? 01:22:22 10° NNW 01:24:06 15° NNE 01:25:49 10° NE visible
20 Jun ? 02:56:08 10° NW 02:58:49 66° NNE 03:01:31 10° ESE visible
20 Jun ? 22:26:42 10° WNW 22:28:35 17° NNW 22:30:28 10° NNE visible
21 Jun ? 00:02:43 10° NNW 00:03:44 11° N 00:04:46 10° NNE visible
21 Jun ? 01:36:34 10° NNW 01:38:49 22° NNE 01:40:32 13° ENE visible
21 Jun ? 03:10:38 10° WNW 03:11:16 15° WNW 03:11:16 15° WNW visible
21 Jun ? 22:42:01 10° NW 22:43:21 13° N 22:44:42 10° NNE visible
22 Jun ? 00:17:08 10° NNW 00:18:33 13° N 00:20:00 10° NE visible
22 Jun ? 01:50:50 10° NW 01:52:47 34° N 01:52:47 34° N visible
22 Jun ? 22:57:11 10° NNW 22:58:11 11° N 22:59:10 10° NNE visible
23 Jun ? 00:31:20 10° NNW 00:33:19 18° NNE 00:34:49 13° ENE visible
23 Jun ? 02:05:13 10° WNW 02:05:38 13° WNW 02:05:38 13° WNW visible
23 Jun ? 23:11:50 10° NNW 23:13:01 12° N 23:14:11 10° NNE visible
24 Jun ? 00:45:33 10° NW 00:47:55 29° NNE 00:47:55 29° NNE visible
24 Jun ? 21:51:30 10° NNW 21:52:37 12° N 21:53:44 10° NNE visible
24 Jun ? 23:26:06 10° NNW 23:27:49 15° NNE 23:29:31 10° NE visible
25 Jun ? 00:59:51 10° NW 01:01:11 25° NW 01:01:11 25° NW visible
25 Jun ? 22:06:27 10° NNW 22:07:27 11° N 22:08:28 10° NNE visible
25 Jun ? 23:40:18 10° NNW 23:42:32 22° NNE 23:43:42 17° ENE visible
26 Jun ? 01:14:22 10° WNW 01:14:32 11° WNW 01:14:32 11° WNW visible
26 Jun ? 22:20:52 10° NNW 22:22:16 13° N 22:23:42 10° NE visible
26 Jun ? 23:54:33 10° NW 23:57:07 41° NNE 23:57:07 41° NNE visible
27 Jun ? 22:35:04 10° NNW 22:37:02 18° NNE 22:39:00 10° ENE visible
28 Jun ? 00:08:56 10° NW 00:10:37 33° WNW 00:10:37 33° WNW visible
28 Jun ? 22:49:17 10° NW 22:51:43 29° NNE 22:53:19 16° E visible
